TimeEST,TemperatureF,Dew PointF,Humidity,Sea Level PressureIn,VisibilityMPH,Wind Direction,Wind SpeedMPH,Gust SpeedMPH,PrecipitationIn,Events,Conditions,WindDirDegrees,DateUTC
12:14 AM,32.0,18.9,58,30.00,10.0,WNW,16.1,21.9,N/A,,Overcast,300,2012-11-24 05:14:00
12:35 AM,32.0,18.9,58,30.00,10.0,WNW,12.7,18.4,N/A,,Overcast,290,2012-11-24 05:35:00
1:14 AM,32.0,19.2,59,30.00,10.0,NW,13.8,19.6,N/A,,Overcast,310,2012-11-24 06:14:00
1:35 AM,32.0,18.9,58,30.00,10.0,WNW,10.4,20.7,N/A,,Overcast,300,2012-11-24 06:35:00
1:55 AM,32.0,19.0,59,30.00,10.0,WNW,17.3,23.0,N/A,,Overcast,290,2012-11-24 06:55:00
2:14 AM,32.0,19.4,60,30.00,10.0,WNW,9.2,16.1,N/A,,Overcast,300,2012-11-24 07:14:00
2:35 AM,31.8,19.0,59,30.01,10.0,WNW,13.8,20.7,N/A,,Overcast,300,2012-11-24 07:35:00
2:54 AM,31.6,19.0,60,30.01,10.0,WNW,15.0,20.7,N/A,,Overcast,290,2012-11-24 07:54:00
3:14 AM,31.6,18.5,58,30.02,10.0,WNW,13.8,23.0,N/A,,Overcast,290,2012-11-24 08:14:00
3:35 AM,31.5,18.1,58,30.02,10.0,WNW,15.0,18.4,N/A,,Overcast,290,2012-11-24 08:35:00
3:54 AM,31.5,18.1,58,30.02,10.0,WNW,15.0,19.6,N/A,,Overcast,290,2012-11-24 08:54:00
4:14 AM,31.5,18.3,58,30.02,10.0,WNW,13.8,21.9,N/A,,Overcast,290,2012-11-24 09:14:00
4:35 AM,31.3,18.5,59,30.02,10.0,WNW,11.5,19.6,N/A,,Overcast,300,2012-11-24 09:35:00
4:54 AM,31.1,18.1,59,30.02,10.0,WNW,11.5,-,N/A,,Overcast,290,2012-11-24 09:54:00
5:15 AM,31.1,17.4,57,30.03,10.0,WNW,13.8,23.0,N/A,,Overcast,290,2012-11-24 10:15:00
5:35 AM,30.9,17.1,57,30.03,10.0,WNW,13.8,18.4,N/A,,Overcast,290,2012-11-24 10:35:00
5:54 AM,30.9,17.4,57,30.04,10.0,WNW,15.0,19.6,N/A,,Overcast,290,2012-11-24 10:54:00
6:15 AM,30.9,17.1,57,30.04,10.0,WNW,16.1,19.6,N/A,,Overcast,290,2012-11-24 11:15:00
6:35 AM,30.9,17.2,57,30.05,10.0,WNW,12.7,19.6,N/A,,Overcast,300,2012-11-24 11:35:00
6:54 AM,30.7,17.4,58,30.05,10.0,WNW,11.5,18.4,N/A,,Overcast,290,2012-11-24 11:54:00
7:15 AM,30.7,16.9,56,30.05,10.0,WNW,9.2,17.3,N/A,,Overcast,290,2012-11-24 12:15:00
7:35 AM,30.7,17.1,57,30.06,10.0,West,15.0,20.7,N/A,,Overcast,280,2012-11-24 12:35:00
7:54 AM,30.6,17.2,58,30.06,10.0,WNW,12.7,-,N/A,,Overcast,290,2012-11-24 12:54:00
8:15 AM,30.6,17.4,58,30.06,10.0,WNW,11.5,16.1,N/A,,Overcast,290,2012-11-24 13:15:00
8:34 AM,30.7,17.4,58,30.07,10.0,WNW,11.5,-,N/A,,Overcast,290,2012-11-24 13:34:00
8:54 AM,30.9,17.4,57,30.08,10.0,WNW,15.0,18.4,N/A,,Overcast,290,2012-11-24 13:54:00
9:14 AM,31.1,18.0,58,30.08,10.0,WNW,12.7,23.0,N/A,,Overcast,300,2012-11-24 14:14:00
9:34 AM,31.5,17.8,57,30.09,10.0,WNW,17.3,24.2,N/A,,Overcast,300,2012-11-24 14:34:00
9:55 AM,31.1,17.4,57,30.09,10.0,NW,15.0,19.6,N/A,,Overcast,310,2012-11-24 14:55:00
10:14 AM,31.1,17.4,57,30.09,10.0,WNW,13.8,19.6,N/A,,Overcast,290,2012-11-24 15:14:00
10:34 AM,31.1,17.1,56,30.10,10.0,NW,13.8,19.6,N/A,,Overcast,310,2012-11-24 15:34:00
10:55 AM,31.1,17.8,58,30.09,10.0,NW,13.8,19.6,N/A,,Overcast,310,2012-11-24 15:55:00
11:14 AM,31.5,17.6,57,30.09,10.0,WNW,15.0,19.6,N/A,,Overcast,300,2012-11-24 16:14:00
11:35 AM,32.0,16.7,53,30.09,10.0,NW,10.4,-,N/A,,Overcast,320,2012-11-24 16:35:00
11:54 AM,32.0,16.5,53,30.08,10.0,WNW,15.0,18.4,N/A,,Overcast,290,2012-11-24 16:54:00
12:14 PM,32.0,16.9,54,30.08,10.0,WNW,10.4,18.4,N/A,,Overcast,300,2012-11-24 17:14:00
12:35 PM,32.0,16.5,53,30.07,10.0,WNW,11.5,-,N/A,,Overcast,300,2012-11-24 17:35:00
12:54 PM,32.0,16.9,54,30.07,10.0,WNW,12.7,19.6,N/A,,Overcast,300,2012-11-24 17:54:00
1:15 PM,32.0,16.9,54,30.07,10.0,NW,13.8,19.6,N/A,,Overcast,310,2012-11-24 18:15:00
1:35 PM,32.0,16.7,53,30.07,10.0,WNW,11.5,18.4,N/A,,Overcast,290,2012-11-24 18:35:00
1:54 PM,32.0,16.2,52,30.07,10.0,WNW,11.5,-,N/A,,Overcast,300,2012-11-24 18:54:00
2:15 PM,32.0,16.9,54,30.07,10.0,WNW,8.1,-,N/A,,Overcast,290,2012-11-24 19:15:00
2:35 PM,31.8,16.5,53,30.07,10.0,West,12.7,-,N/A,,Overcast,280,2012-11-24 19:35:00
2:54 PM,31.6,15.8,52,30.07,10.0,West,13.8,18.4,N/A,,Overcast,280,2012-11-24 19:54:00
3:15 PM,31.6,16.2,53,30.07,10.0,West,11.5,-,N/A,,Overcast,280,2012-11-24 20:15:00
3:34 PM,31.6,15.8,52,30.07,10.0,WNW,11.5,18.4,N/A,,Overcast,290,2012-11-24 20:34:00
3:55 PM,31.6,15.6,52,30.07,10.0,WNW,10.4,17.3,N/A,,Overcast,300,2012-11-24 20:55:00
4:15 PM,31.6,16.3,53,30.07,10.0,WNW,9.2,-,N/A,,Overcast,290,2012-11-24 21:15:00
4:34 PM,31.1,15.6,53,30.07,10.0,West,11.5,-,N/A,,Overcast,280,2012-11-24 21:34:00
4:55 PM,31.1,16.3,54,30.07,10.0,West,11.5,-,N/A,,Overcast,280,2012-11-24 21:55:00
5:14 PM,30.9,15.4,53,30.07,10.0,West,11.5,17.3,N/A,,Overcast,280,2012-11-24 22:14:00
5:34 PM,30.9,15.6,53,30.07,10.0,WNW,9.2,-,N/A,,Overcast,300,2012-11-24 22:34:00
5:55 PM,30.7,15.3,53,30.07,10.0,WNW,10.4,-,N/A,,Overcast,290,2012-11-24 22:55:00
6:14 PM,30.6,15.8,54,30.07,10.0,WNW,5.8,-,N/A,,Overcast,290,2012-11-24 23:14:00
6:34 PM,30.4,14.9,53,30.07,10.0,WNW,11.5,-,N/A,,Overcast,290,2012-11-24 23:34:00
6:54 PM,30.2,15.1,53,30.06,10.0,NW,8.1,-,N/A,,Overcast,310,2012-11-24 23:54:00
7:14 PM,30.2,15.4,54,30.07,10.0,West,5.8,-,N/A,,Overcast,280,2012-11-25 00:14:00
7:35 PM,30.2,15.6,55,30.06,10.0,West,5.8,-,N/A,,Overcast,280,2012-11-25 00:35:00
7:54 PM,30.2,16.2,56,30.06,10.0,West,3.5,-,N/A,,Overcast,260,2012-11-25 00:54:00
8:15 PM,30.2,16.7,57,30.05,10.0,West,5.8,-,N/A,,Overcast,260,2012-11-25 01:15:00
8:35 PM,30.0,16.5,57,30.05,10.0,West,10.4,-,N/A,,Overcast,270,2012-11-25 01:35:00
8:54 PM,30.0,16.3,57,30.04,10.0,West,4.6,-,N/A,,Overcast,270,2012-11-25 01:54:00
9:15 PM,29.8,16.7,58,30.04,10.0,West,6.9,-,N/A,,Overcast,270,2012-11-25 02:15:00
9:35 PM,30.0,16.7,58,30.03,10.0,West,5.8,-,N/A,,Overcast,270,2012-11-25 02:35:00
9:54 PM,29.8,17.2,59,30.02,10.0,WSW,3.5,-,N/A,,Overcast,240,2012-11-25 02:54:00
10:15 PM,29.8,17.8,61,30.01,10.0,Calm,Calm,-,N/A,,Overcast,0,2012-11-25 03:15:00
10:35 PM,29.8,18.3,62,30.01,10.0,SW,4.6,-,N/A,,Overcast,230,2012-11-25 03:35:00
10:54 PM,30.0,18.7,63,30.01,10.0,WSW,6.9,-,N/A,,Overcast,240,2012-11-25 03:54:00
11:15 PM,29.8,18.5,63,30.01,10.0,WSW,5.8,-,N/A,,Overcast,250,2012-11-25 04:15:00
11:35 PM,29.8,18.5,63,30.01,10.0,WSW,4.6,-,N/A,,Overcast,240,2012-11-25 04:35:00
11:54 PM,29.8,19.0,64,30.01,10.0,WSW,5.8,-,N/A,,Overcast,240,2012-11-25 04:54:00